Weather History for Lemoore (Abandoned) Willett A, CO

Change the Weather History Date:

Monday, May 26, 2014

  Actual Average (KBJC) Record (KBJC)
Temperature  
Mean Temperature 64 °F -  
Max Temperature 78 °F 73 °F 89 °F (2012)
Min Temperature 50 °F 49 °F 38 °F (1989)
Degree Days  
Heating Degree Days 1    
Growing Degree Days 14 (Base 50)    
Moisture  
Dew Point 47 °F    
Average Humidity 57    
Maximum Humidity 88    
Minimum Humidity 29    
Precipitation  
Precipitation 0.01 in - - ()
Sea Level Pressure  
Sea Level Pressure 30.09 in    
Wind  
Wind Speed 3 mph (West)    
Max Wind Speed 16 mph    
Max Gust Speed 21 mph    
Visibility 10 miles    
Events Rain    
Averages and records for this station are not official NWS values.
T = Trace of Precipitation, MM = Missing Value Source: NWS Daily Summary

Daily Weather History Graph

Daily Weather History Graph

Search for Another Location

Airport:

Trip Planner

Search our weather history database for the weather conditions in past years. The results will help you decide how hot, cold, wet, or windy it might be!

Date:

Astronomy

May. 26, 2014 Rise Set
Actual Time 5:36 AM MDT 8:19 PM MDT
Civil Twilight 5:04 AM MDT 8:51 PM MDT
Nautical Twilight 4:24 AM MDT 9:31 PM MDT
Astronomical Twilight 3:39 AM MDT 10:16 PM MDT
Moon 4:20 AM MDT (5/26) 6:24 PM MDT (5/26)
Length of Visible Light 15h 46m
Length of Day
14h 42m
Waning Crescent, 4% of the Moon is Illuminated
May 26
Waning Crescent
May 28
New
Jun 5
First Quarter
Jun 12
Full
Jun 19
Last Quarter

Hourly Weather History & Observations

Time (MDT) Temp. Dew Point Humidity Pressure Visibility Wind Dir Wind Speed Gust Speed Precip Events Conditions
12:14 AM 54.9 °F 44.1 °F 67% 30.09 in 10.0 mi West 3.5 mph - N/A   Overcast
12:34 AM 54.5 °F 46.2 °F 74% 30.09 in 10.0 mi Calm Calm - N/A   Overcast
12:54 AM 55.9 °F 45.9 °F 69% 30.09 in 10.0 mi Calm Calm - N/A   Overcast
1:14 AM 54.9 °F 46.4 °F 73% 30.09 in 10.0 mi Calm Calm - N/A   Mostly Cloudy
1:34 AM 55.6 °F 45.9 °F 70% 30.08 in 10.0 mi SW 4.6 mph - N/A   Mostly Cloudy
1:54 AM 55.9 °F 45.5 °F 68% 30.08 in 10.0 mi West 3.5 mph - N/A   Overcast
2:14 AM 54.5 °F 48.2 °F 79% 30.09 in 10.0 mi Calm Calm - N/A   Overcast
2:34 AM 55.9 °F 48.4 °F 76% 30.09 in 10.0 mi Calm Calm - N/A   Overcast
2:54 AM 56.8 °F 47.7 °F 71% 30.09 in 10.0 mi West 3.5 mph - N/A   Overcast
3:14 AM 57.4 °F 47.3 °F 69% 30.09 in 10.0 mi West 5.8 mph - N/A   Mostly Cloudy
3:34 AM 57.2 °F 47.1 °F 69% 30.09 in 10.0 mi WNW 3.5 mph - N/A   Mostly Cloudy
3:54 AM 56.5 °F 46.4 °F 69% 30.08 in 10.0 mi WNW 5.8 mph - N/A   Overcast
4:14 AM 56.8 °F 44.1 °F 62% 30.08 in 10.0 mi NW 8.1 mph - N/A   Mostly Cloudy
4:34 AM 55.8 °F 43.2 °F 63% 30.08 in 10.0 mi NW 5.8 mph - N/A   Scattered Clouds
4:54 AM 54.5 °F 43.0 °F 65% 30.08 in 10.0 mi West 5.8 mph - N/A   Clear
5:14 AM 54.0 °F 43.0 °F 66% 30.08 in 10.0 mi West 3.5 mph - N/A   Clear
5:34 AM 52.2 °F 43.2 °F 71% 30.08 in 10.0 mi WSW 4.6 mph - N/A   Clear
5:54 AM 50.5 °F 43.2 °F 76% 30.10 in 10.0 mi SW 5.8 mph - N/A   Clear
6:14 AM 53.4 °F 44.2 °F 71% 30.10 in 10.0 mi SSW 4.6 mph - N/A   Clear
6:34 AM 52.7 °F 44.1 °F 72% 30.10 in 10.0 mi Calm Calm - N/A   Clear
6:54 AM 53.1 °F 47.1 °F 80% 30.10 in 10.0 mi Calm Calm - N/A   Clear
7:14 AM 55.2 °F 46.9 °F 74% 30.11 in 10.0 mi Calm Calm - N/A   Clear
7:34 AM 57.2 °F 48.9 °F 74% 30.11 in 10.0 mi Calm Calm - N/A   Clear
7:54 AM 61.7 °F 47.1 °F 59% 30.11 in 10.0 mi Calm Calm - N/A   Clear
8:14 AM 63.1 °F 48.2 °F 58% 30.11 in 10.0 mi Calm Calm - N/A   Clear
8:34 AM 65.7 °F 48.4 °F 54% 30.11 in 10.0 mi Calm Calm - N/A   Clear
8:54 AM 67.1 °F 48.2 °F 51% 30.11 in 10.0 mi Calm Calm - N/A   Clear
9:14 AM 68.7 °F 47.1 °F 46% 30.10 in 10.0 mi Calm Calm - N/A   Clear
9:34 AM 70.3 °F 45.7 °F 41% 30.10 in 10.0 mi Calm Calm - N/A   Clear
9:54 AM 70.5 °F 46.0 °F 42% 30.10 in 10.0 mi ENE 3.5 mph - N/A   Clear
10:14 AM 72.1 °F 45.9 °F 39% 30.10 in 10.0 mi Calm Calm - N/A   Clear
10:34 AM 73.0 °F 43.9 °F 35% 30.10 in 10.0 mi Calm Calm - N/A   Clear
10:54 AM 74.1 °F 45.1 °F 35% 30.09 in 10.0 mi East 3.5 mph - N/A   Clear
11:14 AM 74.8 °F 47.3 °F 38% 30.10 in 10.0 mi East 4.6 mph - N/A   Clear
11:34 AM 75.2 °F 47.1 °F 37% 30.10 in 10.0 mi ENE 6.9 mph - N/A   Clear
11:54 AM 74.7 °F 45.5 °F 35% 30.09 in 10.0 mi ENE 4.6 mph - N/A   Clear
12:14 PM 76.1 °F 45.5 °F 34% 30.09 in 10.0 mi East 5.8 mph - N/A   Clear
12:34 PM 77.0 °F 47.5 °F 35% 30.08 in 10.0 mi East 8.1 mph - N/A   Clear
12:55 PM 76.5 °F 46.0 °F 34% 30.07 in 10.0 mi ENE 8.1 mph - N/A   Clear
1:34 PM 78.1 °F 44.6 °F 30% 30.07 in 10.0 mi East 3.5 mph - N/A   Clear
1:54 PM 77.7 °F 43.2 °F 29% 30.07 in 10.0 mi Calm Calm - N/A   Clear
2:14 PM 76.6 °F 43.5 °F 31% 30.07 in 10.0 mi Calm Calm - N/A   Scattered Clouds
2:34 PM 73.8 °F 49.5 °F 42% 30.08 in 10.0 mi NW 12.7 mph - N/A   Scattered Clouds
2:54 PM 70.5 °F 48.9 °F 46% 30.09 in 10.0 mi WNW 13.8 mph 19.6 mph N/A   Clear
3:14 PM 69.6 °F 47.7 °F 45% 30.09 in 10.0 mi WNW 16.1 mph 19.6 mph N/A   Scattered Clouds
3:34 PM 69.6 °F 47.3 °F 45% 30.08 in 10.0 mi WNW 9.2 mph 12.7 mph N/A   Mostly Cloudy
3:54 PM 70.9 °F 46.4 °F 42% 30.07 in 10.0 mi WSW 5.8 mph - N/A   Scattered Clouds
4:14 PM 72.3 °F 47.7 °F 41% 30.07 in 10.0 mi Calm Calm - N/A   Scattered Clouds
4:34 PM 77.2 °F 44.4 °F 31% 30.07 in 10.0 mi Calm Calm - N/A   Scattered Clouds
4:54 PM 75.7 °F 42.3 °F 30% 30.06 in 10.0 mi SSW 6.9 mph - N/A   Clear
5:14 PM 74.3 °F 43.5 °F 33% 30.06 in 10.0 mi Calm Calm - N/A   Clear
5:34 PM 73.2 °F 43.9 °F 35% 30.07 in 10.0 mi Calm Calm - N/A   Mostly Cloudy
5:54 PM 69.3 °F 46.0 °F 43% 30.11 in 10.0 mi NNW 15.0 mph 20.7 mph N/A Rain Light Rain
6:14 PM 65.3 °F 51.3 °F 60% 30.11 in 10.0 mi NW 6.9 mph - 0.01 in Rain Light Rain
6:34 PM 63.9 °F 51.1 °F 63% 30.08 in 10.0 mi SE 3.5 mph - 0.01 in   Overcast
6:54 PM 65.7 °F 50.5 °F 58% 30.09 in 10.0 mi WSW 3.5 mph - 0.01 in   Mostly Cloudy
7:14 PM 68.9 °F 50.5 °F 52% 30.09 in 10.0 mi WSW 4.6 mph - N/A   Scattered Clouds
7:34 PM 68.4 °F 49.6 °F 51% 30.09 in 10.0 mi Calm Calm - N/A   Scattered Clouds
7:54 PM 65.3 °F 51.3 °F 60% 30.09 in 10.0 mi SW 3.5 mph - N/A   Clear
8:14 PM 63.5 °F 52.0 °F 66% 30.09 in 10.0 mi Calm Calm - N/A   Clear
8:34 PM 60.8 °F 54.0 °F 78% 30.09 in 10.0 mi WNW 3.5 mph - N/A   Clear
8:54 PM 59.5 °F 50.7 °F 73% 30.09 in 10.0 mi Calm Calm - N/A   Clear
9:14 PM 58.5 °F 49.8 °F 73% 30.10 in 10.0 mi WSW 3.5 mph - N/A   Clear
9:34 PM 56.1 °F 49.6 °F 79% 30.11 in 10.0 mi SSW 4.6 mph - N/A   Clear
9:54 PM 56.3 °F 49.1 °F 77% 30.11 in 10.0 mi Calm Calm - N/A   Clear
10:14 PM 55.8 °F 49.5 °F 79% 30.11 in 10.0 mi Calm Calm - N/A   Clear
10:34 PM 52.9 °F 48.9 °F 86% 30.12 in 10.0 mi Calm Calm - N/A   Clear
10:54 PM 54.1 °F 48.9 °F 82% 30.11 in 10.0 mi Calm Calm - N/A   Clear
11:34 PM 51.8 °F 48.2 °F 88% 30.11 in 10.0 mi Calm Calm - N/A   Clear